Regional Weather Roundup
Issued by NWS Goodland, KS

Home | Current Version | Previous Version | Graphics & Text | Print | Product List | Glossary On
Versions: 1 2 3 4 5 6 7 8 9 10 11 12 13 14 15 16 17 18 19 20 21 22 23 24 25 26 27 28 29 30 31 32 33 34 35 36 37 38 39 40 41 42 43 44 45 46 47 48 49 50
000
ASUS43 KGLD 230108
RWRGLD

GOODLAND FORECAST AREA HOURLY WEATHER ROUNDUP
NATIONAL WEATHER SERVICE GOODLAND KS
600 PM MST SAT NOV 22 2014

...OFFICIAL OBSERVATIONS...

CITY           SKY/WX    TMP DP  RH WIND       PRES   REMARKS
GOODLAND KS    MOCLDY    51  20  29 S14       29.54F
HILL CITY KS   CLEAR     54  32  43 S10       29.56S
IMPERIAL NEB   CLOUDY    47  14  26 N7        29.52S
MCCOOK NEB     MOCLDY    50  17  27 S7        29.51S
AKRON CO       CLOUDY    49  15  25 N10       29.57R
BURLINGTON CO  CLOUDY    45  19  35 S12       29.55F
LIMON CO       CLOUDY    38  15  39 N5        29.58R
$$

...UNOFFICIAL OBSERVATIONS...

CITY           SKY/WX    TMP DP  RH WIND       PRES   REMARKS
COLBY KS       CLEAR     52  28  40 S12       29.55F
GOVE KS          N/A     49  32  52 MISG        N/A
NORTON KS      CLEAR     54  27  35 S8        29.53F
SHARON SPRINGS   N/A     43  27  52 N8          N/A
TRIBUNE KS     PTCLDY    45  32  61 CALM      29.55F
TRENTON NEB      N/A     52  32  46 SW6         N/A
YUMA CO          N/A     47  12  24 CALM        N/A
$$


USA.gov is the U.S. government's official web portal to all federal, state and local government web resources and services.